Regional Weather Roundup
Issued by NWS

Home | Current Version | Previous Version | Text Only | Print | Product List | Glossary Off
Versions: 1 2 3 4 5 6 7 8 9 10 11 12 13 14 15 16 17 18 19 20 21 22 23 24 25 26 27 28 29 30 31 32 33 34 35 36 37 38 39 40 41 42 43 44 45 46 47 48 49 50

000
ASUS43 KFSD 151002
RWRSD

WEATHER ROUNDUP FOR SOUTH DAKOTA
NATIONAL WEATHER SERVICE SIOUX FALLS SD
400 AM CST MON JAN 15 2018

NOTE: "FAIR" INDICATES FEW OR NO CLOUDS BELOW 12,000 FEET WITH NO
SIGNIFICANT WEATHER AND/OR OBSTRUCTIONS TO VISIBILITY.


SDZ001>005-009-010-012>017-151100-
NORTHWEST AND NORTH CENTRAL SOUTH DAKOTA

CITY           SKY/WX    TMP DP  RH WIND       PRES   REMARKS
BUFFALO          N/A     -7 -13  75 NW23      30.47R WCI -33
FAITH            N/A     -9 -13  83 NW15      30.54R WCI -31
MOBRIDGE       CLOUDY    -4 -12  68 NW14      30.55R WCI -24
$$

SDZ012>016-024>037-041>051-057-063-072>074-151100-
SOUTHWEST AND SOUTH CENTRAL SOUTH DAKOTA

CITY           SKY/WX    TMP DP  RH WIND       PRES   REMARKS
RAPID CTY ARPT CLEAR      0  -6  76 N28G33    30.48R WCI -25
PIERRE         PTCLDY    -3  -8  79 NW22      30.56R WCI -27
CUSTER         PTCLDY     6 -16  35 NW6       30.25R WCI  -4
ELLSWORTH AFB  CLEAR      1  -5  77 N22       30.48R WCI -22
PHILIP         CLEAR     -2  -7  79 NW16      30.58R WCI -23
PINE RIDGE     CLEAR      2  -9  60 VRB5      30.46R WCI  -8
SPEARFISH        N/A     -2  -8  78 NW13      30.48R WCI -21
WINNER         MIX PCPN   2  -5  72 N22       30.51R WCI -20
$$

SDZ004>011-016>023-039-040-151100-
NORTHEAST SOUTH DAKOTA

CITY           SKY/WX    TMP DP  RH WIND       PRES   REMARKS
ABERDEEN       CLEAR     -5 -12  72 N18G25    30.54R WCI -28
WATERTOWN      CLEAR     -7 -12  79 N22G32    30.38R WCI -32
BROOKINGS      CLEAR     -6 -12  75 NW21G28   30.37R WCI -30
SISSETON         N/A     -6 -12  75 NW22G32   30.45R WCI -31
$$

SDZ017-020-022-023-036>040-048>070-151100-
SOUTHEAST SOUTH DAKOTA

CITY           SKY/WX    TMP DP  RH WIND       PRES   REMARKS
SIOUX FALLS    CLEAR     -1  -8  72 NW23G30   30.39R WCI -25
HURON          CLEAR     -3  -9  75 N18       30.51R WCI -25
CHAMBERLAIN    CLEAR      1  -5  75 NW21      30.52R WCI -21
MITCHELL       CLEAR     -1  -7  75 NW22      30.51R WCI -24
YANKTON        CLEAR      1  -5  75 NW21      30.47R WCI -21
$$

ABBREVIATIONS USED IN REMARKS
   TC - TEMPERATURE IN CELSIUS
  WCI - WIND CHILL INDEX
   HX - HEAT INDEX
  VSB - VISIBILITY





USA.gov is the U.S. government's official web portal to all federal, state and local government web resources and services.